AirNav   SIMCOM
 
 1034 users online  

7PN0 Tidmore Airport
Minersville, Pennsylvania, USA

GOING TO MINERSVILLE?


FAA INFORMATION EFFECTIVE 14 SEPTEMBER 2017

Location

FAA Identifier: 7PN0
Lat/Long: 40-42-18.0000N / 076-14-11.0000W
40-42.300000N / 076-14.183333W
40.7050000 / -76.2363889
(estimated)
Elevation: 930 ft. / 283 m (estimated)
Variation: 11W (1985)
From city: 1 mile NE of MINERSVILLE, PA
Time zone: UTC -4 (UTC -5 during Standard Time)
Zip code: 17901

Airport Operations

Airport use: Private use. Permission required prior to landing
Activation date: 03/1961
Control tower: no
ARTCC: NEW YORK CENTER
FSS: WILLIAMSPORT FLIGHT SERVICE STATION
Attendance: UNATNDD
Pattern altitude: 1730 ft. MSL
Wind indicator: yes
Segmented circle: no

Airport Communications

WX AWOS-3 at ZER (6 nm W): 127.57 (570-544-2778)
WX AWOS-3 at N79 (16 nm NW): 119.175 (570-672-0389)

Nearby radio navigation aids

VOR radial/distance  VOR name  Freq  Var
HZLr206/(17.0)HAZLETON VOR109.4009W
RAVr072/18.9RAVINE VORTAC114.6011W
ETXr295/26.2EAST TEXAS VOR/DME110.2009W
MIPr143/27.3MILTON VORTAC109.2009W
SEGr108/29.9SELINSGROVE VORTAC110.4008W
LRPr013/35.2LANCASTER VOR/DME117.3009W
FJCr278/35.6ALLENTOWN VORTAC117.5010W

 
NDB name  Hdg/Dist  Freq  Var  ID
BELLGROVE052/21.732810WBZJ -... --.. .---

Airport Services

Parking: tiedowns
Bottled oxygen: NONE
Bulk oxygen: NONE

Runway Information

Runway 8/26

Dimensions: 2000 x 150 ft. / 610 x 46 m
Surface: turf, in good condition
Runway edge markings: 08/26 OUTLINED WITH YELLOW TIRES.
RUNWAY 8  RUNWAY 26
Traffic pattern: leftleft
Runway end identifier lights: nono
Obstructions: 33 ft. tree, 492 ft. from runway18 ft. trees, 271 ft. from runway

Airport Ownership and Management from official FAA records

Ownership: Privately-owned
Owner: ARGIE D. TIDMORE
PO BOX 86
POTTSVILLE, PA 17901
Phone 570-622-1360
EXT. 26
Manager: ARGIE D. TIDMORE
PO BOX 86
POTTSVILLE, PA 17901
Phone 570-622-1360
EXT. 26

Airport Operational Statistics

Aircraft based on the field: 1
Single engine airplanes: 1
    

Instrument Procedures

There are no published instrument procedures at 7PN0.

Some nearby airports with instrument procedures:

KZER - Schuylkill County / Joe Zerbey Airport (6 nm W)
N79 - Northumberland County Airport (16 nm NW)
74N - Bendigo Airport (17 nm SW)
N13 - Bloomsburg Municipal Airport (20 nm NW)
KHZL - Hazleton Regional Airport (20 nm NE)
 
Loc | Ops | Rwys | IFR | FBO | Links
Com | Nav | Svcs | Stats | Notes


 
Area around 7PN0 (Tidmore Airport)
 
Road maps at: MapQuest Bing Google
 
Aerial photo
No photo
 
Sectional chart

 
Airport distance calculator
Flying to Tidmore Airport? Find the distance to fly.

From to 7PN0

Sunrise and sunset
Times for 23-Sep-2017
 Local
(UTC-4)
 Zulu
(UTC)
Morning civil twilight06:2710:27
Sunrise06:5410:54
Sunset19:0023:00
Evening civil twilight19:2823:28

Current date and time
Zulu (UTC)  23-Sep-2017 18:19:11
Local (UTC-4)  23-Sep-2017 14:19:11
 
METAR
KHZL 
20nm NE 
231755Z AUTO 34009G15KT 10SM CLR 27/12 A3017 RMK AO2
KMUI 
23nm SW 
231758Z AUTO 04006KT 10SM CLR 29/12 A3008 RMK AO2 SLP185 T02880116 10290 20175 57012
KRDG 
24nm SE 
231754Z AUTO 34005KT 10SM CLR 29/13 A3006 RMK AO2 SLP182 T02940133 10294 20172 58014 $
KSEG 
29nm W 
231753Z AUTO 01005KT 10SM CLR 29/15 A3010 RMK AO2 SLP191 T02890150 10289 20122 58016
KXLL 
35nm E 
231755Z AUTO 33005KT 10SM CLR 30/12 A3007 RMK AO2
KLNS 
35nm S 
231753Z 35006KT 10SM CLR 29/14 A3008 RMK AO2 SLP182 T02940139 10294 20161 58012
KABE 
36nm E 
231751Z 32005KT 10SM CLR 30/14 A3006 RMK AO2 SLP177 T03000139 10306 20178 58013
KMDT 
39nm SW 
231756Z 27010KT 10SM FEW250 29/15 A3008 RMK AO2 SLP183 T02890150 10294 20183 58011
TAF
KMUI 
23nm SW 
221900Z 2219/2401 35006KT 9999 FEW200 QNH3003INS TX28/2219Z TN15/2310Z LAST NO AMDS AFT 2304 NEXT 2511
KRDG 
24nm SE 
231722Z 2318/2418 02005KT P6SM SKC FM232300 00000KT P6SM FEW250 FM241400 36004KT P6SM FEW250
NOTAMs
Click for the latest NOTAMs
NOTAMs are issued by the DoD/FAA and will open in a separate window not controlled by AirNav.

 

 
 

Would you like to see your business listed on this page?

 If your business provides an interesting product or service to pilots, flight crews, aircraft, or users of the Tidmore Airport, you should consider listing it here.  To start the listing process, click on the button below
 
Add a business
 

Other Pages about Tidmore Airport

Update a link
 
Copyright © AirNav, LLC. All rights reserved. Privacy Policy  Contact